Location: Asheville, NC
(35.6000°N, 82.5500°W)
Time: 05:26:15
(UTC-05:00)

Envisat - Pass Details

Date: 14 February 2018
Orbit: 764 x 766 km, 98.2° (Epoch: 17 February)

Event Time Altitude Azimuth Distance (km) Brightness Sun altitude
Exits shadow 19:52:58 14° 155° (SSE) 1,997 4.9 -21.2°
Maximum altitude 19:57:14 68° 75° (ENE) 823 2.8 -22.1°
Drops below altitude 10° 20:02:16 10° 353° (N) 2,304 5.5 -23.1°
Sets 20:04:35 0° 351° (N) 3,233 6.4 -23.6°
